Henderson, KY

7:48 AM CST on December 08, 2019 (GMT -0600)
Henderson City-County

Weather History for KEHR - October, 2019

Change the Weather History Date:

Thursday, October 24, 2019

  Actual Average Record
Temperature  
Mean Temperature 54 °F -  
Max Temperature 64 °F 66 °F 86 °F (1934)
Min Temperature 43 °F 45 °F 19 °F (1981)
Degree Days  
Heating Degree Days 12    
Growing Degree Days 4 (Base 50)    
Moisture  
Dew Point 44 °F    
Average Humidity 68    
Maximum Humidity 86    
Minimum Humidity 46    
Precipitation  
Precipitation 0.00 in - - ()
Sea Level Pressure  
Sea Level Pressure 30.24 in    
Wind  
Wind Speed 5 mph (NW)    
Max Wind Speed 12 mph    
Max Gust Speed 17 mph    
Visibility 10 miles    
Events      
Averages and records for this station are not official NWS values.
T = Trace of Precipitation, MM = Missing Value Source: NWS Daily Summary

Daily Weather History Graph

Daily Weather History Graph

Search for Another Location

Airport or City:

Astronomy

Oct. 24, 2019 Rise Set
Actual Time 7:07 AM CDT 6:01 PM CDT
Civil Twilight 6:40 AM CDT 6:28 PM CDT
Nautical Twilight 6:10 AM CDT 6:59 PM CDT
Astronomical Twilight 5:39 AM CDT 7:29 PM CDT
Moon 2:43 AM CDT (10/24) 4:23 PM CDT (10/24)
Length of Visible Light 11h 47m
Length of Day
10h 53m
Waning Crescent, 16% of the Moon is Illuminated
Oct 24
Waning Crescent
Oct 27
New
Nov 4
First Quarter
Nov 12
Full
Nov 19
Last Quarter

Hourly Weather History & Observations

Time (CDT) Temp. Windchill Dew Point Humidity Pressure Visibility Wind Dir Wind Speed Gust Speed Precip Events Conditions
1:56 AM 48.9 °F - 37.9 °F 66% 30.17 in 10.0 mi South 3.5 mph - N/A   Clear
2:56 AM 51.1 °F - 39.0 °F 63% 30.17 in 10.0 mi Calm Calm - N/A   Clear
3:56 AM 48.0 °F - 39.0 °F 71% 30.16 in 10.0 mi South 8.1 mph - N/A   Clear
4:56 AM 46.9 °F - 39.0 °F 74% 30.18 in 10.0 mi South 4.6 mph - N/A   Clear
5:56 AM 44.1 °F - 39.9 °F 85% 30.20 in 10.0 mi Calm Calm - N/A   Clear
6:56 AM 43.0 °F 41.3 °F 39.0 °F 86% 30.21 in 10.0 mi SSW 3.5 mph - N/A   Clear
7:56 AM 46.0 °F - 41.0 °F 83% 30.25 in 10.0 mi Calm Calm - N/A   Clear
8:56 AM 55.0 °F - 43.0 °F 64% 30.27 in 10.0 mi SSW 4.6 mph - N/A   Clear
9:56 AM 60.1 °F - 42.1 °F 51% 30.26 in 10.0 mi WSW 6.9 mph - N/A   Clear
10:56 AM 63.0 °F - 42.1 °F 46% 30.26 in 10.0 mi NW 6.9 mph - N/A   Mostly Cloudy
11:56 AM 64.0 °F - 44.1 °F 48% 30.25 in 10.0 mi NNW 5.8 mph - N/A   Mostly Cloudy
12:56 PM 63.0 °F - 45.0 °F 52% 30.24 in 10.0 mi NNW 6.9 mph - N/A   Partly Cloudy
1:56 PM 64.9 °F - 45.0 °F 48% 30.22 in 10.0 mi Variable 4.6 mph - N/A   Clear
2:56 PM 64.9 °F - 45.0 °F 48% 30.22 in 10.0 mi NNW 5.8 mph - N/A   Clear
3:56 PM 62.1 °F - 46.9 °F 58% 30.22 in 10.0 mi NNW 11.5 mph - N/A   Clear
4:56 PM 57.9 °F - 48.0 °F 70% 30.24 in 10.0 mi NNW 8.1 mph 17.3 mph N/A   Clear
5:56 PM 55.9 °F - 46.9 °F 72% 30.26 in 10.0 mi NNW 8.1 mph - N/A   Scattered Clouds
6:56 PM 54.0 °F - 46.9 °F 77% 30.28 in 10.0 mi NNW 8.1 mph - N/A   Clear
7:56 PM 54.0 °F - 48.0 °F 80% 30.29 in 10.0 mi NNE 10.4 mph - N/A   Partly Cloudy
8:56 PM 53.1 °F - 48.0 °F 83% 30.28 in 10.0 mi Calm Calm - N/A   Clear
9:56 PM 54.0 °F - 48.0 °F 80% 30.29 in 10.0 mi NE 6.9 mph - N/A   Scattered Clouds
10:56 PM 54.0 °F - 48.0 °F 80% 30.29 in 10.0 mi North 4.6 mph - 0.00 in   Clear
11:56 PM 52.0 °F - 48.0 °F 86% 30.29 in 10.0 mi NW 3.5 mph - N/A   Scattered Clouds